Flag for U.S.A. Weather past 2 weeks in Mesquite, Texas, U.S.A.

Now
27 °F

Mostly cloudy.


Feels Like: 20 °F
Forecast: 28 / 37 °F
Wind: 6 mph from Northeast

Location: Mesquite Metro Airport

Current Time: Feb 27, 2015 at 8:51:12 PM

Latest Report: Feb 27, 2015 at 6:50 PM


Visibility: 10 mi

Pressure: 30.45 "Hg

Humidity: 80%

Dew point: 21 °F

Location of MesquiteLocation

Historic Weather in Mesquite — Graph

°F

Mesquite temperature yesterday

Maximum temperature yesterday: 37 °F (at 2:50 PM)
Minimum temperature yesterday: 29 °F (at 3:55 AM)
Average temperature yesterday: 33 °F

Past Weeks' High & Low Weather Summary

 TemperatureHumidityPressure
High79 °F (Feb 14, 3:50 PM)100% (Feb 18, 7:50 AM)30.57 "Hg (Feb 18, 7:50 AM)
Low26 °F (Feb 24, 12:55 AM)21% (Feb 14, 3:50 PM)29.71 "Hg (Feb 21, 3:55 AM)
Average41 °F74%30.18 "Hg
* Reported Feb 12 6:50 PM — Feb 27 6:50 PM, Mesquite, Weather by CustomWeather, © 2015

Note: Actual official high and low records may vary slightly from our data, if they occured in-between our weather recording intervals... More about our weather records

Advertising

Mesquite weather history for previous 24 hours

 ConditionsComfort  
Time TempWeatherWind HumidityBarometerVisibility
6:50 PM
Fri, Feb 27
27 °FMostly cloudy.6 mph80%30.45 "Hg10 mi
5:50 PM27 °FMore clouds than sun.7 mph80%30.44 "Hg10 mi
4:50 PM28 °FMostly cloudy.9 mph80%30.44 "Hg10 mi
3:50 PM28 °FMostly cloudy.9 mph74%30.43 "Hg10 mi
2:50 PM28 °FMostly cloudy.10 mph80%30.42 "Hg7 mi
1:47 PM28 °FLight snow. Ice fog.8 mph86%30.46 "Hg2 mi
12:50 PM27 °FSnow. Low clouds.7 mph93%30.49 "Hg1 mi
11:50 AM27 °FSnow. Low clouds.6 mph93%30.51 "Hg1 mi
10:50 AM27 °FSnow. Mostly cloudy.5 mph80%30.53 "Hg1 mi
10:00 AM28 °FCloudy.6 mph64%30.52 "Hg2 mi
8:50 AM27 °FMore clouds than sun.9 mph59%30.50 "Hg10 mi
7:50 AM27 °FMostly cloudy.9 mph54%30.46 "Hg10 mi
6:50 AM27 °FOvercast.7 mph54%30.45 "Hg10 mi
4:35 AM27 °FPassing clouds.8 mph58%30.42 "Hg10 mi
4:15 AM27 °FClear.8 mph58%30.41 "Hg10 mi
3:55 AM27 °FClear.8 mph58%30.42 "Hg10 mi
3:35 AM28 °FClear.7 mph55%30.42 "Hg10 mi
3:15 AM28 °FClear.9 mph54%30.42 "Hg10 mi
2:55 AM29 °FPassing clouds.12 mph54%30.43 "Hg10 mi
2:35 AM29 °FPassing clouds.8 mph54%30.44 "Hg10 mi
2:15 AM29 °FPassing clouds.9 mph55%30.45 "Hg10 mi
1:55 AM29 °FPartly cloudy.8 mph57%30.45 "Hg10 mi
1:35 AM29 °FPartly cloudy.9 mph56%30.45 "Hg10 mi
1:15 AM29 °FPassing clouds.14 mph54%30.44 "Hg10 mi
12:55 AM30 °FOvercast.12 mph54%30.43 "Hg10 mi
12:35 AM30 °FMostly cloudy.12 mph53%30.44 "Hg10 mi
12:15 AM30 °FMostly cloudy.12 mph55%30.44 "Hg10 mi
11:55 PM
Thu, Feb 26
31 °FMostly cloudy.9 mph53%30.43 "Hg10 mi
11:15 PM31 °FPassing clouds.10 mph56%30.43 "Hg10 mi
10:55 PM32 °FPartly cloudy.12 mph52%30.44 "Hg10 mi
10:15 PM32 °FMostly cloudy.10 mph52%30.42 "Hg10 mi
9:15 PM33 °FOvercast.12 mph52%30.41 "Hg10 mi
8:55 PM34 °FOvercast.10 mph51%30.41 "Hg10 mi
Weather by CustomWeather, © 2015

See weather overviewHow to use our weather pages